Find Gonets-M No. 33L

NORAD ID: 54150 Int'l Des: 2022-139 Owner: GONETS Country: RU operational
LEOCIRCULARPOLAR

リアルタイム位置

3D地球を読み込み中...

Gonets-M No. 33Lについて

説明を読み込み中...

次回通過

Passes for default location (London). Set your location on the main map for personalized predictions.

高度履歴

Loading altitude history...

軌道要素

1 54150U 22139A 26105.95818159 .00000011 00000-0 55312-5 0 9995
2 54150 82.5110 26.9604 0021880 0.3630 359.7462 12.42888030157917
Epoch: Apr 15, 2026 • Age: 13 hours

現在のステータス

高度 1514.0 km
速度 7.10 km/s
衛星直下点 2.19°N, 171.39°W
打ち上げ日 Oct 22, 2022
運用期間 3.4 years
タイプ other

技術仕様

分類 Payload
質量 280.00 kg
乾燥質量 280.00 kg
総質量 280.00 kg
長さ 1.60 m
直径 0.80 m
スパン 7.00 m
形状 Cyl + Ant
製造者 RESH
バスタイプ Strela-3M
フェーズステータス In Orbit
所有者/国 GONETS/RU

Most Searched